Weather Roundup
Issued by NWS

Home | Current Version | Previous Version | Text Only | Print | Product List | Glossary On
Versions: 1 2 3 4 5 6 7 8 9 10 11 12 13 14 15 16 17 18 19 20 21 22 23 24 25 26 27 28 29 30 31 32 33 34 35 36 37 38 39 40 41 42 43 44 45 46 47 48 49 50
000
CXUS53 KTOP 280410
HRRKS

...ACROSS KANSAS...

1000 PM CST SAT FEB 27 2021
WESTERN KANSAS

CITY           SKY/WX    TMP DP  RH WIND       PRES   REMARKS
GOODLAND       CLEAR     30  12  47 NW14      29.86R WCI  19
HILL CITY      CLEAR     42  25  50 NW22G31   29.83R
DODGE CITY     MOCLDY    44  22  41 NW21G38   29.79R
GARDEN CITY    CLEAR     39  21  48 N17       29.84R WCI  30
LIBERAL        MOCLDY    43  18  36 N22G29    29.83R
ELKHART        CLEAR     43  19  38 N16       29.85R
HAYS           CLEAR     44  24  45 NW24G31   29.76R
RUSSELL        PTCLDY    45  24  43 NW18      29.73R
MEDICINE LDG     N/A     54  51  90 W5        29.72R

CENTRAL KANSAS

CITY           SKY/WX    TMP DP  RH WIND       PRES   REMARKS
GREAT BEND     PTCLDY    47  30  51 NW14G22   29.75R
CONCORDIA      MOCLDY    50  47  89 N5        29.68R
SALINA         LGT RAIN  54  54 100 W3        29.72R FOG
HUTCHISON      CLOUDY    54  51  90 S14       29.71R FOG
NEWTON         CLOUDY    54  51  90 S21       29.70R
WICHITA        CLOUDY    54  51  90 S13       29.71R
WINFIELD       CLOUDY    56  53  90 S10       29.73S

EASTERN KANSAS

CITY           SKY/WX    TMP DP  RH WIND       PRES   REMARKS
MARYSVILLE     CLOUDY    55  41  58 S7        29.70R
MANHATTAN      CLOUDY    57  42  57 SW8       29.72R
TOPEKA         CLOUDY    58  43  57 S18G30    29.68R
FORBES         CLOUDY    57  45  64 S18G29    29.68S
OLATHE IND     CLOUDY    55  41  59 S15       29.72F
LAWRENCE       CLOUDY    57  45  64 S17G31    29.69F
OTTAWA         CLOUDY    57  46  67 S16G23    29.71F
EMPORIA        PTCLDY    53  46  77 S20G32    29.69S
IOLA           CLOUDY    55  49  80 S16G23    29.76S
CHANUTE        CLOUDY    56  50  80 S13       29.76R

...ADJACENT STATES...


CITY           SKY/WX    TMP DP  RH WIND       PRES   REMARKS
KCI AIRPORT    CLOUDY    57  40  52 S20G29    29.70F
ST JOSEPH      CLOUDY    54  36  50 CALM      29.72S
FALLS CITY     CLOUDY    51  38  60 SE8       29.71S
BEATRICE       CLOUDY    53  42  66 SW7       29.69R
OMAHA          MOCLDY    45  37  73 SE7       29.72R
LINCOLN        LGT RAIN  45  42  89 NW3       29.70R
GRAND ISLAND   CLEAR     36  33  89 W5        29.76R WCI  32
NORTH PLATTE   PTCLDY    35  26  69 N10       29.83R WCI  27
SCOTTSBLUFF    CLEAR     28  17  63 W8        29.87R WCI  20
CHEYENNE       CLEAR     19   7  59 W20       29.85R WCI   3


CITY           SKY/WX    TMP DP  RH WIND       PRES   REMARKS
DENVER         MOCLDY    28   7  41 W14       29.90R WCI  17
COLO SPRINGS   PTCLDY    31   1  28 NW10G25   29.86R WCI  22
RAPID CITY     FOG       23  19  85 N23G33    29.93R VSB 1   WCI   7
AMARILLO       FAIR      50   7  17 SW7       29.75R
OKLA CITY      DRZL/FOG  56  56 100 S12       29.76R VSB 1/4
TULSA          LGT RAIN  54  53  97 S13       29.77F
LITTLE ROCK    FOG       51  50  96 CALM      29.94S VSB 1/4
SPRINGFIELD    CLOUDY    48  47  96 S17       29.81F
COLUMBIA       LGT RAIN  49  46  90 SE13      29.84F


CITY           SKY/WX    TMP DP  RH WIND       PRES   REMARKS
ST LOUIS       LGT RAIN  51  47  86 SE14      29.91F FOG
DES MOINES     MOCLDY    40  33  76 E12       29.81F WCI  33
BISMARK        MOCLDY    21  11  65 NW7       30.08R WCI  12
BURLINGTON KS  CLOUDY    53  45  72 S18G28    29.73S
FORT SCOTT     NOT AVBL
HEBRON         PTCLDY    41  38  87 NW6       29.72R
COFFEYVILLE    CLOUDY    55  50  83 S13       29.76S


USA.gov is the U.S. government's official web portal to all federal, state and local government web resources and services.